Flag for Brazil Weather past 2 weeks in Belo Horizonte, Minas Gerais, Brazil

Now
81 °F

Scattered clouds.


Feels Like: 81 °F
Forecast: 64 / 80 °F
Wind: 12 mph from Southeast

Location: Belo Horizonte Airport

Current Time: Aug 28, 2015 at 3:00:53 PM

Latest Report: Aug 28, 2015 at 2:00 PM


Visibility: N/A

Pressure: 30.12 "Hg (27.31 "Hg at 860m altitude)

Humidity: 51%

Dew point: 61 °F

Location of Belo HorizonteLocation

Historic Weather in Belo Horizonte — Graph

°F

Belo Horizonte temperature yesterday

Maximum temperature yesterday: 86 °F (at 1:00 PM)
Minimum temperature yesterday: 64 °F (at 4:00 AM)
Average temperature yesterday: 74 °F

Past Weeks' High & Low Weather Summary

 TemperatureHumidityPressure
High86 °F (Aug 20, 2:00 PM)100% (Aug 19, 3:00 AM)30.33 "Hg (Aug 19, 3:00 AM)
Low55 °F (Aug 14, 3:00 AM)29% (Aug 20, 2:00 PM)29.98 "Hg (Aug 23, 3:00 PM)
Average69 °F64%30.15 "Hg
* Reported Aug 13 2:00 PM — Aug 28 2:00 PM, Belo Horizonte, Weather by CustomWeather, © 2015

Note: Actual official high and low records may vary slightly from our data, if they occured in-between our weather recording intervals... More about our weather records

Advertising

Belo Horizonte weather history for previous 24 hours

 ConditionsComfort  
Time TempWeatherWind HumidityBarometerVisibility
2:00 PM
Fri, Aug 28
81 °FScattered clouds.12 mph51%30.12 "HgN/A
1:00 PM79 °FScattered clouds.10 mph54%30.15 "HgN/A
12:00 PM79 °FScattered clouds.8 mph54%30.15 "HgN/A
11:00 AM79 °FPassing clouds.6 mph54%30.15 "HgN/A
10:00 AM75 °FSunny.5 mph61%30.18 "Hg10 mi
9:00 AM72 °FSunny.3 mph69%30.18 "Hg10 mi
8:00 AM68 °FSunny.2 mph78%30.15 "Hg10 mi
7:00 AM63 °FSunny.2 mph88%30.15 "Hg10 mi
6:00 AM63 °FClear.3 mph88%30.09 "Hg10 mi
5:00 AM64 °FClear.2 mph83%30.09 "Hg10 mi
4:00 AM64 °FClear.9 mph83%30.09 "Hg10 mi
3:00 AM66 °FClear.12 mph78%30.12 "Hg10 mi
2:00 AM66 °FClear.8 mph83%30.15 "Hg10 mi
1:00 AM66 °FClear.7 mph83%30.15 "Hg10 mi
12:00 AM68 °FClear.10 mph78%30.18 "Hg10 mi
11:00 PM
Thu, Aug 27
70 °FClear.12 mph73%30.18 "Hg10 mi
10:00 PM72 °FClear.10 mph61%30.15 "Hg10 mi
9:00 PM75 °FClear.15 mph54%30.12 "Hg10 mi
8:00 PM75 °FClear.15 mph57%30.09 "Hg10 mi
7:00 PM77 °FClear.14 mph51%30.07 "Hg10 mi
6:00 PM82 °FClear.8 mph35%30.04 "Hg10 mi
5:00 PM86 °FScattered clouds.8 mph31%30.04 "HgN/A
4:00 PM86 °FScattered clouds.7 mph33%30.04 "HgN/A
3:00 PM86 °FPassing clouds.8 mph33%30.01 "HgN/A
Weather by CustomWeather, © 2015

See weather overviewHow to use our weather pages